MOVE-II (43780 NORAD) Tracking and Keplerian Element Data

This shows tracking and keplerian element data for the satellite.

Feedback or suggestion? Click here.




ElementValue
Catalog43780
NameMOVE-II
Epoch Orbit3388
Epoch Day199.65361876
Epoch Year2019
RAAN271.1853
Inclination97.743
Eccentricity0.0012583
Argument of Perigee227.5842
Mean Anonmoly132.4315
Mean Motion14.95074312
Decay Rate-2.6E-07
L11 43780U 18099Y 19199.65361876 -.00000026 00000-0 29311-5 0 9990
L22 43780 97.7430 271.1853 0012583 227.5842 132.4315 14.95074312 33887

Live tracking and technical data element details for MOVE-II (NORAD 43780). MOVE-II can be tracked NOW for your location showing map with azimuth and elevation plus other details from your city location.

Track the satellite on the map from your city or location and see movement details for azimuth, elevation, latitude, longitude, range, height, and movement on the map or in text.







IsCatalogInMostPopularTable: catalog: 43780, numindb: 79
Update: records affected: 1



GetName: 43780 MOVE-II

Hit Count: updated at: Sun, 21 Jul 2019 14:59:57 GMT